This is the latest recevied weather packets stored in our database for station/object KC4LZN. If no packets are shown the sender has not sent any weather packets the latest 10 day(s).
| Time | Temp. | Humidity | Pressure | Rain* | Wind** | Luminosity | Snow |
|---|---|---|---|---|---|---|---|
| 1777122922 | 23.33° C | 82% | 1013.1 hPa | 0 mm | - | 368 W/m² | - |
| 1777122619 | 22.78° C | 83% | 1012.9 hPa | 0 mm | - | 349 W/m² | - |
| 1777122314 | 22.78° C | 83% | 1013.2 hPa | 0 mm | - | 329 W/m² | - |
| 1777122011 | 22.22° C | 85% | 1013.1 hPa | 0 mm | - | 309 W/m² | - |
| 1777121706 | 22.22° C | 84% | 1013 hPa | 0 mm | - | 287 W/m² | - |
| 1777121404 | 22.22° C | 86% | 1013.1 hPa | 0 mm | - | 270 W/m² | - |
| 1777121099 | 21.67° C | 88% | 1012.9 hPa | 0 mm | - | 150 W/m² | - |
| 1777120796 | 21.11° C | 90% | 1012.9 hPa | 0 mm | - | 178 W/m² | - |
| 1777120492 | 20.56° C | 92% | 1013 hPa | 0 mm | - | 147 W/m² | - |
| 1777120187 | 20.56° C | 94% | 1012.9 hPa | 0 mm | - | 126 W/m² | - |
| 1777119883 | 20° C | 96% | 1012.9 hPa | 0 mm | - | 114 W/m² | - |
| 1777119579 | 20° C | 97% | 1013 hPa | 0 mm | - | 104 W/m² | - |
| 1777119276 | 19.44° C | 98% | 1012.7 hPa | 0 mm | - | 94 W/m² | - |
| 1777118975 | 19.44° C | 98% | 1012.9 hPa | 0 mm | - | 85 W/m² | - |
| 1777118671 | 19.44° C | 99% | 1012.7 hPa | 0 mm | - | 77 W/m² | - |
| 1777118366 | 18.89° C | 99% | 1012.7 hPa | 0 mm | - | 72 W/m² | - |
| 1777118064 | 18.33° C | 99% | 1012.8 hPa | 0 mm | - | 65 W/m² | - |
| 1777117760 | 18.89° C | 99% | 1012.8 hPa | 0 mm | - | 58 W/m² | - |
| 1777117458 | 17.22° C | 99% | 1012.7 hPa | 0 mm | - | 51 W/m² | - |
| 1777117154 | 17.78° C | 99% | 1012.7 hPa | 0 mm | - | 45 W/m² | - |
| 1777116849 | 17.78° C | 99% | 1012.5 hPa | 0 mm | - | 39 W/m² | - |
| 1777116546 | 16.67° C | 99% | 1012.6 hPa | 0 mm | - | 33 W/m² | - |
| 1777116242 | 16.67° C | 99% | 1012.5 hPa | 0 mm | - | 25 W/m² | - |
| 1777115942 | 16.11° C | 99% | 1012.6 hPa | 0 mm | - | 20 W/m² | - |
| 1777115637 | 16.11° C | 99% | 1012.5 hPa | 0 mm | - | 17 W/m² | - |
* Rain latest hour (hover to see other rain measurements)
** Current wind speed in m/s (hover to see current wind gust speed)